Home   Weather   St. Louis   Past weeks
Flag for USA

Past Weather in St. Louis, Missouri, USA — Yesterday and Last 2 Weeks

Now
35 °F

Drizzle. Fog.


Feels Like: 35 °F
Forecast: 39 / 32 °F
Wind: No wind

Location: Lambert-St. Louis International Airport

Current Time: Jan 17, 2019 at 5:08:34 am

Latest Report: Jan 17, 2019 at 3:51 am


Visibility: 1 mi

Pressure: 30.07 "Hg

Humidity: 96%

Dew Point: 34 °F

Location of St. LouisLocation

Past Weather in St. Louis — Graph

°F

St. Louis Temperature Yesterday

Maximum temperature yesterday: 36 °F (at 1:51 pm)
Minimum temperature yesterday: 34 °F (at 5:51 am)
Average temperature yesterday: 35 °F

High & Low Weather Summary for the Past Weeks

 TemperatureHumidityPressure
High68 °F (Jan 7, 2:51 pm)100% (Jan 17, 2:03 am)30.51 "Hg (Jan 17, 2:03 am)
Low21 °F (Jan 10, 6:51 am)32% (Jan 8, 2:51 pm)29.71 "Hg (Jan 7, 12:51 pm)
Average36 °F76%30.18 "Hg
* Reported Jan 2 3:01 am — Jan 17 3:51 am, St. Louis. Weather by CustomWeather, © 2019

Note: Actual official high and low records may vary slightly from our data, if they occured in-between our weather recording intervals... More about our weather records

Advertising

St. Louis Weather History for the Previous 24 Hours

Scroll right to see more
 ConditionsComfort  
Time TempWeatherWind HumidityBarometerVisibility
3:51 am
Thu, Jan 17
35 °FDrizzle. Fog.No wind96%30.07 "Hg1 mi
3:28 am34 °FDrizzle. Fog.5 mph100%30.05 "Hg1 mi
3:10 am34 °FDrizzle. Fog.5 mph97%30.06 "Hg1 mi
2:51 am34 °FLight rain. Fog.5 mph97%30.10 "Hg1 mi
2:03 am34 °FLight rain. Fog.No wind100%30.09 "Hg2 mi
1:23 am34 °FDrizzle. Fog.6 mph97%30.09 "Hg2 mi
12:59 am34 °FDrizzle. Fog.7 mph97%30.09 "Hg2 mi
11:59 pm
Wed, Jan 16
34 °FDrizzle. Fog.7 mph97%30.13 "Hg3 mi
11:34 pm34 °FDrizzle. Fog.7 mph97%30.14 "Hg2 mi
11:05 pm34 °FDrizzle. Fog.9 mph92%30.15 "Hg4 mi
9:51 pm34 °FDrizzle. Fog.6 mph92%30.19 "Hg5 mi
8:51 pm34 °FDrizzle. Fog.7 mph92%30.20 "Hg5 mi
8:13 pm35 °FLow clouds.8 mph85%30.18 "Hg8 mi
7:51 pm35 °FMostly cloudy.9 mph85%30.21 "Hg9 mi
7:25 pm35 °FMostly cloudy.9 mph85%30.19 "Hg9 mi
6:51 pm35 °FMostly cloudy.8 mph85%30.22 "Hg10 mi
5:51 pm35 °FOvercast.8 mph85%30.22 "Hg8 mi
4:51 pm35 °FFog.7 mph85%30.23 "Hg6 mi
3:51 pm36 °FOvercast.3 mph82%30.23 "Hg6 mi
3:26 pm35 °FMostly cloudy.5 mph85%30.20 "Hg8 mi
2:51 pm36 °FMore clouds than sun.No wind82%30.22 "Hg8 mi
1:51 pm36 °FMostly cloudy.No wind82%30.22 "Hg7 mi
1:36 pm35 °FMostly cloudy.No wind85%30.19 "Hg7 mi
12:51 pm34 °FOvercast.No wind88%30.24 "Hg7 mi
11:51 am35 °FLow clouds.3 mph85%30.28 "Hg7 mi
11:24 am34 °FFog.5 mph88%30.27 "Hg6 mi
10:51 am34 °FFog.3 mph88%30.31 "Hg5 mi
9:51 am34 °FOvercast.5 mph85%30.29 "Hg7 mi
9:28 am34 °FFog.5 mph88%30.26 "Hg2 mi
8:51 am34 °FFog.No wind92%30.27 "Hg2 mi
8:27 am34 °FFog.3 mph92%30.24 "Hg2 mi
7:51 am34 °FFog.6 mph97%30.25 "Hg2 mi
6:51 am35 °FDrizzle. Fog.5 mph92%30.24 "Hg2 mi
5:51 am34 °FDrizzle. Fog.3 mph97%30.22 "Hg2 mi
5:29 am35 °FDrizzle. Fog.6 mph92%30.19 "Hg2 mi
5:04 am35 °FDrizzle. Fog.7 mph92%30.19 "Hg4 mi
Weather by CustomWeather, © 2019

See weather overview